STARLINK-34055, 63819

Orbit data source: Space-Track

STARLINK-34055, 63819 is a payload satellite owned by SpaceX/Seattle (US) in LEO that was launched on Sun, 04 May 2025 UTC via an FALCON 9 launch vehicle from the Air Force Eastern Test Range (AFETR). Payload-class satellites include a variety of spacecraft equipped with specific instruments for various scientific and technological missions. These include communications satellites like Starlink; space stations such as the ISS; scientific satellites like the Hubble; Earth observation satellites from companies like Planet Labs, Umbra, and HawkEye 360; GPS; miniature CubeSats for education and research; and military/defense satellites.

Loading next visibility...
Identifier
63819, 2025-092R
Orbit
LEO
Country
Flag of USUS
Related business
Manufacturer
SpaceX/Seattle
Mission
Operational Commercial Communications
Bus & Motor
STARLINK V2MO, Unknown motor
Mass
575 kg wet, ~530 kg dry
Launch date (UTC)
2025-05-04 (7 months ago)
Launch vehicle
FALCON 9
Launch site
Air Force Eastern Test Range (AFETR)
Object type
Payload
Rocket body
Debris
Shape & HBR
Box + 2 Pan, 17.7 m
Radar Cross Section
36.964 m², Large (>1 m²)

Expand to show TLE details & history
Last TLE update: 21 hours ago

TLE from 21 hours ago
0 STARLINK-34055
1 63819U 25092R   25341.05093216  .00036371  00000-0  13240-2 0  9998
2 63819  43.0030 335.9684 0002024 273.3135  86.7486 15.27596936 34446
Epoch: 2025-12-07T01:13Z
TLE epoch observation values (Epoch: 2025-12-07T01:13:20.538Z)
Latitude
0.00003°
Longitude
-118.43701°
Altitude
482.696 km
Speed
7.626 km/s
True Right ascension
22h 23m 52s
True Declination
0° 00' 00"
Sunlit
Object was in daylight at epoch
Visualization orbit readout
Latitude
Unknown
Longitude
Unknown
Altitude
Unknown
Speed
Unknown
Apparent Right ascension
Unknown
Apparent Declination
Unknown
Sunlit
N/A
Visualization observer readout
Local Sidereal Time
20:17:15
Azimuth
Unknown
Elevation
Unknown
Doppler factor
Unknown
Orbital elements
Apogee altitude
486.332 km
Perigee altitude
483.554 km
Semi-major axis
6,863.08 km
Eccentricity
0.0002
Inclination
43.003°
RAAN
335.9684°
Arg. of periapsis
273.3135°
True anomaly
86.77176°
Mean anomaly
86.7486°
Eccentric anomaly
86.76018°
Mean motion
3.81737 °/min
Orbital period
94.31 mins
BSTAR
0.001324
Loading maneuver chart data...
Computing Atmospheric mass density...
Loading historical data...
Loading historical data...
Loading historical data...
Loading historical data...
Loading historical data...
Loading historical data...
Loading historical data...

Documentation

Showing up to 5 results
|